Home > Weather > Sydney > Past weeks

Flag for Australia Past Weather in Sydney, New South Wales, Australia — Yesterday and Last 2 Weeks

Now
57 °F

Clear.


Feels Like: 57 °F
Forecast: 54 / 65 °F
Wind: 5 mph from North

Location: Sydney Airport

Current Time: May 26, 2016 at 2:56:44 AM

Latest Report: May 26, 2016 at 2:00 AM


Visibility: 10 mi

Pressure: 29.83 "Hg

Humidity: 59%

Dew Point: 43 °F

Location of SydneyLocation

Past Weather in Sydney — Graph

°F

Sydney Temperature Yesterday

Maximum temperature yesterday: 70 °F (at 3:00 PM)
Minimum temperature yesterday: 50 °F (at 6:00 AM)
Average temperature yesterday: 60 °F

High & Low Weather Summary for the Past Weeks

 TemperatureHumidityPressure
High84 °F (May 17, 2:30 PM)88% (May 13, 7:30 PM)30.33 "Hg (May 13, 7:30 PM)
Low50 °F (May 25, 6:00 AM)13% (May 11, 1:30 PM)29.86 "Hg (May 23, 11:48 AM)
Average64 °F52%30.05 "Hg
* Reported May 11 12:00 AM — May 26 12:30 AM, Sydney, Weather by CustomWeather, © 2016

Note: Actual official high and low records may vary slightly from our data, if they occured in-between our weather recording intervals... More about our weather records

Advertising

Sydney Weather History for the Previous 24 Hours

Scroll right to see more
 ConditionsComfort  
Time TempWeatherWind HumidityBarometerVisibility
12:30 AM
Thu, May 26
57 °FClear.8 mph59%29.86 "Hg10 mi
12:00 AM57 °FClear.9 mph63%29.89 "Hg10 mi
11:30 PM
Wed, May 25
57 °FClear.2 mph63%29.89 "Hg10 mi
11:00 PM59 °FPassing clouds.7 mph59%29.92 "HgN/A
10:00 PM61 °FClear.7 mph52%29.92 "Hg10 mi
9:30 PM61 °FClear.7 mph48%29.92 "Hg10 mi
9:00 PM59 °FClear.7 mph55%29.92 "Hg10 mi
8:30 PM61 °FClear.6 mph52%29.92 "Hg10 mi
8:00 PM61 °FClear.6 mph52%29.92 "Hg10 mi
7:30 PM61 °FClear.5 mph55%29.92 "Hg10 mi
7:00 PM61 °FClear.6 mph52%29.92 "Hg10 mi
6:30 PM64 °FClear.7 mph43%29.92 "Hg10 mi
6:00 PM64 °FClear.10 mph40%29.92 "Hg10 mi
5:30 PM63 °FClear.7 mph42%29.92 "Hg10 mi
5:00 PM63 °FClear.9 mph42%29.92 "Hg10 mi
4:30 PM64 °FClear.8 mph43%29.92 "Hg10 mi
4:00 PM66 °FClear.10 mph35%29.92 "Hg10 mi
3:30 PM68 °FSunny.7 mph21%29.92 "Hg10 mi
3:00 PM70 °FSunny.3 mph21%29.92 "Hg10 mi
2:30 PM68 °FSunny.6 mph24%29.92 "Hg10 mi
2:00 PM68 °FSunny.5 mph24%29.92 "Hg10 mi
1:30 PM66 °FSunny.3 mph32%29.95 "Hg10 mi
1:00 PM66 °FPassing clouds.6 mph30%29.95 "HgN/A
12:30 PM64 °FPassing clouds.6 mph34%29.98 "HgN/A
12:00 PM64 °FSunny.7 mph34%29.98 "Hg10 mi
11:00 AM64 °FSunny.9 mph32%30.04 "Hg10 mi
10:30 AM63 °FSunny.12 mph37%30.04 "Hg10 mi
10:00 AM63 °FSunny.16 mph37%30.04 "Hg10 mi
9:30 AM59 °FSunny.16 mph42%30.04 "Hg10 mi
9:00 AM59 °FSunny.14 mph42%30.04 "Hg10 mi
8:00 AM54 °FSunny.13 mph54%30.04 "Hg10 mi
7:30 AM52 °FSunny.8 mph58%30.04 "Hg10 mi
7:00 AM52 °FSunny.12 mph62%30.04 "Hg10 mi
6:30 AM50 °FSunny.12 mph67%30.04 "Hg10 mi
6:00 AM50 °FSunny.10 mph67%30.01 "Hg10 mi
4:30 AM52 °FPassing clouds.6 mph62%30.01 "HgN/A
4:00 AM52 °FClear.12 mph62%30.01 "Hg10 mi
3:00 AM54 °FClear.12 mph58%30.01 "Hg10 mi
2:30 AM54 °FClear.14 mph58%30.01 "Hg10 mi
2:00 AM54 °FClear.13 mph58%30.01 "Hg10 mi
Weather by CustomWeather, © 2016

See weather overviewHow to use our weather pages